EW6329 Weather Reports


Display with metric or nautical units.
time (UTC)temp
F
wind
direction
speed
MPH
gust
MPH
rain 1hr
in
rain 24hr
in
rain mn
in
humidity
%
barometer
mb
20260509184548 78 317 0.0 3.0 0.00 0.00 0.00 42 1009.0
20260509183102 77 312 0.0 2.0 0.00 0.00 0.00 42 1009.0
20260509181511 77 307 0.0 3.0 0.00 0.00 0.00 44 1009.1
20260509180026 77 309 0.0 2.0 0.00 0.00 0.00 43 1009.3
20260509174539 75 273 0.0 1.0 0.00 0.00 0.00 53 1009.3
20260509173116 75 277 0.0 2.0 0.00 0.00 0.00 51 1009.4
20260509171548 75 278 0.0 2.0 0.00 0.00 0.00 56 1009.4
20260509170055 74 302 0.0 2.0 0.00 0.00 0.00 55 1009.4
20260509164542 73 302 0.0 2.0 0.00 0.00 0.00 58 1009.4
20260509163038 73 286 0.0 2.0 0.00 0.00 0.00 60 1009.4
20260509161540 72 314 0.0 2.0 0.00 0.00 0.00 59 1009.4
20260509160033 72 327 0.0 3.0 0.00 0.00 0.00 61 1009.3
20260509154532 71 294 0.0 3.0 0.00 0.00 0.00 62 1009.1
20260509153033 71 321 1.0 2.0 0.00 0.00 0.00 64 1009.0
20260509151525 70 252 0.0 2.0 0.00 0.00 0.00 68 1009.0
20260509150023 69 251 0.0 2.0 0.00 0.00 0.00 71 1009.1
20260509144520 68 329 0.0 2.0 0.00 0.00 0.00 72 1009.1
20260509143018 67 325 1.0 3.0 0.00 0.00 0.00 73 1009.2
20260509141514 67 325 0.0 3.0 0.00 0.00 0.00 76 1009.3
20260509140014 65 280 0.0 2.0 0.00 0.00 0.00 78 1009.0
20260509134506 64 323 0.0 2.0 0.00 0.00 0.00 82 1009.1
20260509133002 62 119 0.0 2.0 0.00 0.00 0.00 87 1009.0
20260509131604 61 119 0.0 2.0 0.00 0.00 0.00 91 1008.9
20260509130127 59 119 0.0 1.0 0.00 0.00 0.00 93 1008.9
20260509124556 58 119 0.0 0.0 0.00 0.00 0.00 92 1008.8
20260509123120 58 119 0.0 0.0 0.00 0.00 0.00 92 1008.7
20260509121555 58 119 0.0 0.0 0.00 0.00 0.00 91 1008.4
20260509120055 58 119 0.0 0.0 0.00 0.00 0.00 91 1008.5
20260509114625 58 119 0.0 2.0 0.00 0.00 0.00 91 1008.3
20260509113112 57 119 0.0 2.0 0.00 0.00 0.00 90 1008.2
20260509111553 57 51 0.0 0.0 0.00 0.00 0.00 90 1007.9
20260509110059 57 51 0.0 0.0 0.00 0.00 0.00 91 1007.7
20260509104552 57 51 0.0 0.0 0.00 0.00 0.00 91 1007.6
20260509103057 57 51 0.0 0.0 0.00 0.00 0.00 90 1007.5
20260509101600 57 51 0.0 0.0 0.00 0.00 0.00 89 1007.6
20260509100050 57 51 0.0 0.0 0.00 0.00 0.00 88 1007.7
20260509094550 57 51 0.0 0.0 0.00 0.00 0.00 87 1008.0
20260509093047 57 51 0.0 0.0 0.00 0.00 0.00 86 1008.0
20260509091550 58 51 0.0 0.0 0.00 0.00 0.00 86 1007.8
20260509090045 58 51 0.0 0.0 0.00 0.00 0.00 86 1007.7
20260509084543 58 51 0.0 0.0 0.00 0.00 0.00 86 1007.8
20260509083042 58 51 0.0 0.0 0.00 0.00 0.00 86 1007.7
20260509081542 58 51 0.0 0.0 0.00 0.00 0.00 85 1007.7
20260509080045 58 51 0.0 0.0 0.00 0.00 0.00 85 1007.5
20260509074540 59 46 0.0 0.0 0.00 0.00 0.00 84 1007.6
20260509073045 59 46 0.0 0.0 0.00 0.00 0.00 84 1007.5
20260509071536 59 46 0.0 0.0 0.00 0.00 0.00 83 1007.3
20260509070034 59 46 0.0 0.0 0.00 0.00 0.00 83 1007.7
20260509064536 59 46 0.0 0.0 0.00 0.00 0.00 82 1007.9
20260509063035 59 46 0.0 0.0 0.00 0.00 0.00 82 1007.8
20260509061531 59 46 0.0 0.0 0.00 0.00 0.00 82 1008.0
20260509060029 59 46 0.0 0.0 0.00 0.00 0.00 81 1008.0
20260509054529 60 46 0.0 0.0 0.00 0.00 0.00 80 1008.2
20260509053025 60 313 0.0 0.0 0.00 0.00 0.00 79 1008.5
20260509051523 60 313 0.0 0.0 0.00 0.00 0.00 79 1008.9
20260509050026 60 313 0.0 0.0 0.00 0.00 0.00 79 1008.8
20260509044521 60 313 0.0 0.0 0.00 0.00 0.00 78 1009.1
20260509043020 61 313 0.0 0.0 0.00 0.00 0.00 77 1009.4
20260509041522 61 313 0.0 0.0 0.00 0.00 0.00 76 1009.3
20260509040033 61 313 0.0 0.0 0.00 0.00 0.00 75 1009.1
20260509034519 62 313 0.0 0.0 0.00 0.00 0.00 74 1009.3
20260509033018 62 313 0.0 0.0 0.00 0.00 0.00 72 1008.7
20260509031526 63 313 0.0 0.0 0.00 0.00 0.00 71 1008.8
20260509030017 63 313 0.0 0.0 0.00 0.00 0.00 69 1008.9
20260509024516 64 313 0.0 0.0 0.00 0.00 0.00 68 1009.1
20260509023016 64 313 0.0 0.0 0.00 0.00 0.00 66 1009.2
20260509021518 65 313 0.0 0.0 0.00 0.00 0.00 64 1009.0
20260509020014 65 313 0.0 0.0 0.00 0.00 0.00 62 1008.7
20260509014531 66 313 0.0 0.0 0.00 0.00 0.00 60 1008.6
20260509013013 67 313 0.0 0.0 0.00 0.00 0.00 59 1008.6
20260509011513 68 313 0.0 0.0 0.00 0.00 0.00 57 1008.7
20260509010012 68 313 0.0 0.0 0.00 0.00 0.00 57 1008.7
20260509004513 69 313 0.0 0.0 0.00 0.00 0.00 56 1008.6
20260509003113 69 313 0.0 1.0 0.00 0.00 0.00 56 1008.6
20260509001510 69 313 0.0 0.0 0.00 0.00 0.00 54 1008.4
20260509000010 70 313 0.0 2.0 0.00 0.00 0.00 53 1008.4
20260508234508 71 14 0.0 2.0 0.00 0.00 0.00 50 1008.4
20260508233008 71 53 0.0 2.0 0.00 0.00 0.00 52 1008.4
20260508231557 73 312 0.0 4.0 0.00 0.00 0.00 48 1008.4
20260508230122 72 355 0.0 2.0 0.00 0.00 0.00 48 1008.6
20260508224550 72 98 0.0 2.0 0.00 0.00 0.00 50 1008.7
20260508223046 73 321 0.0 2.0 0.00 0.00 0.00 48 1008.7
20260508221545 73 319 0.0 3.0 0.00 0.00 0.00 48 1008.8
20260508220111 74 53 0.0 2.0 0.00 0.00 0.00 49 1008.9
20260508214532 73 116 0.0 2.0 0.00 0.00 0.00 49 1009.0
20260508213052 74 336 0.0 4.0 0.00 0.00 0.00 48 1009.0
20260508211558 74 299 0.0 3.0 0.00 0.00 0.00 46 1009.3
20260508210009 74 331 0.0 2.0 0.00 0.00 0.00 47 1009.3
20260508204523 73 346 0.0 3.0 0.00 0.00 0.00 46 1009.5
20260508203034 73 144 0.0 2.0 0.00 0.00 0.00 47 1009.7
20260508201549 73 317 0.0 2.0 0.00 0.00 0.00 47 1009.8
20260508194523 72 286 0.0 2.0 0.00 0.00 0.00 47 1010.1
20260508193025 72 281 0.0 2.0 0.00 0.00 0.00 48 1010.2
20260508191520 73 312 0.0 2.0 0.00 0.00 0.00 45 1010.6
20260508190016 71 331 0.0 2.0 0.00 0.00 0.00 45 1010.6